Terminal Aerodrome Forecast
Issued by NWS Buffalo, NY

Home | Current Version | Previous Version | Text Only | Print | Product List | Glossary On
Versions: 1 2 3 4 5 6 7 8 9 10 11 12 13 14 15 16 17 18 19 20 21 22 23 24 25 26 27 28 29 30 31 32 33 34 35 36 37 38
000
FTUS41 KBUF 182000 AAB
TAFBUF
TAF AMD
KBUF 182048Z 1821/1918 27010KT P6SM -FZDZSN OVC015
     FM190000 30008KT P6SM OVC020=

USA.gov is the U.S. government's official web portal to all federal, state and local government web resources and services.